Regional Weather Roundup
Issued by NWS Upton, NY

Current Version | Previous Version | Text Only | Print | Product List | Glossary Off
Versions: 1 2 3 4 5 6 7 8 9 10 11 12 13 14 15 16 17 18 19 20 21 22 23 24 25 26 27

000
ASUS41 KOKX 151408
RWROKX

REGIONAL WEATHER ROUNDUP
NATIONAL WEATHER SERVICE NEW YORK NY
900 AM EST FRI DEC 15 2017

NOTE: "FAIR" INDICATES FEW OR NO CLOUDS BELOW 12,000 FEET WITH NO
SIGNIFICANT WEATHER AND/OR OBSTRUCTIONS TO VISIBILITY.

NYZ071-072-176-178-NJZ106-104-151500-
NEW YORK CITY METRO AREA

CITY           SKY/WX    TMP DP  RH WIND       PRES   REMARKS
Central Park   CLOUDY    23  10  57 W5        30.13R WCI  17
Bronx Bot Gard   N/A     25  10  54 W1        30.12S
Bronx Lehman C   N/A     23  10  58 NW2         N/A
LaGuardia APRT CLOUDY    25  10  53 CALM      30.12R
Queens College   N/A     25  12  58 SW2         N/A
Kennedy INTL   CLOUDY    24  11  57 E3        30.13S
Breezy Point     N/A    N/A N/A N/A W5          N/A
Brooklyn Coll    N/A     27  12  54 SW3         N/A
Staten Island    N/A     23  10  58 W2          N/A
Newark/Liberty CLOUDY    23   9  55 W7        30.12S WCI  15
Teterboro      CLOUDY    23   9  55 SW3       30.11R
$$

NYZ177-179-078>081-151500-
LONG ISLAND NEW YORK

CITY           SKY/WX    TMP DP  RH WIND       PRES   REMARKS
Jones Beach      N/A    N/A N/A N/A CALM        N/A
Wantagh          N/A     25  12  58 N2          N/A
Matinecock PT    N/A    N/A N/A N/A S3          N/A
Farmingdale    CLOUDY    22  12  65 CALM      30.12R
MacArthur/ISP  CLOUDY    22  13  68 CALM      30.11R
Shirley        MOSUNNY   22  14  71 CALM      30.13R
Mt Sinai Harb    N/A    N/A N/A N/A S5          N/A
Westhampton    CLOUDY    19  15  84 CALM      30.13S
East Hampton   PTSUNNY   19  13  77 CALM      30.13R
Southold         N/A     25  16  68 S1          N/A
Montauk          N/A     27  16  63 CALM      30.14R
$$

NYZ052-065-067-151500-
HUDSON VALLEY

CITY           SKY/WX    TMP DP  RH WIND       PRES   REMARKS
White Plains   CLOUDY    20  10  65 SW5       30.08R WCI  13
Larchmont Harb   N/A    N/A N/A N/A W3          N/A
Croton On Huds   N/A    N/A N/A N/A SW5         N/A
Somers           N/A     18  10  73 CALM        N/A
Brewster         N/A     16  10  79 CALM        N/A
Newburgh       PTSUNNY   16  10  79 CALM      30.08S
Montgomery     CLOUDY    13   7  77 CALM      30.07R
Otisville        N/A     14   7  73 SW5         N/A  WCI   6
Warwick          N/A     16  10  79 W1          N/A
Suffern          N/A     19  10  68 SW2         N/A
Poughkeepsie   CLOUDY    14   7  73 CALM      30.10R
Albany         CLOUDY    14   7  73 S3        30.08S
$$

NJZ001-105-106-008-010-013-015-019>022-104-151500-
NEW JERSEY

CITY           SKY/WX    TMP DP  RH WIND       PRES   REMARKS
Newark/Liberty CLOUDY    23   9  55 W7        30.12S WCI  15
Teterboro      CLOUDY    23   9  55 SW3       30.11R
Caldwell       CLOUDY    19   9  65 S3        30.12R
Somerville     PTSUNNY   15  12  88 CALM      30.11R
Linden         FAIR      22   8  54 CALM      30.13R
Perth Amboy      N/A    N/A N/A N/A W7          N/A
Sussex         CLOUDY    13   9  84 CALM      30.07R
Andover        NOT AVBL
Trenton        CLOUDY    23  11  60 CALM      30.11S
Millville      CLOUDY    25  13  60 E5        30.11F WCI  19
Atlantic City  CLOUDY    25  12  58 NE5       30.12S WCI  19
Wrightstown    CLOUDY    23  10  57 CALM      30.09S
Toms River     CLOUDY    22  14  71 CALM      30.13S
Belmar         CLOUDY    21  11  65 W5        30.13R WCI  15
$$

PAZ047>061-062-071-151500-
EASTERN PENNSYLVANIA

CITY           SKY/WX    TMP DP  RH WIND       PRES   REMARKS
Philadelphia   CLOUDY    26  10  50 SE6       30.12F WCI  19
Allentown      MOSUNNY   17   8  67 CALM      30.09F
Scranton       CLOUDY    13   7  77 E3        30.03S
$$

CTZ002-004>006-009-010-012-RIZ004-006-007-MAZ004-011-015-151500-
SOUTHERN NEW ENGLAND
 IN CT

CITY           SKY/WX    TMP DP  RH WIND       PRES   REMARKS
Bradley INTL   CLOUDY    15   8  73 SW3       30.10R
Hartford       MOSUNNY   16   8  71 S3        30.13R
Danbury        PTSUNNY   17   9  70 CALM      30.09S
Wtrbury/Oxford CLOUDY    15   9  76 CALM      30.07R
Norwalk Harbor   N/A    N/A N/A N/A NW3         N/A
Bridgeport     MOSUNNY   22  10  60 N5        30.12S WCI  16
Meriden        CLOUDY    13   9  84 CALM      30.12R
New Haven      CLOUDY    20  12  71 N5        30.12S WCI  13
Chester        FAIR      18   5  57 W5        30.10R WCI  11
Groton         MOSUNNY   20   9  62 W5        30.13R WCI  13
Wilimantic     CLOUDY    12   8  84 CALM      30.11R

 IN RI

CITY           SKY/WX    TMP DP  RH WIND       PRES   REMARKS
Providence     CLOUDY    17   9  70 S3        30.12R
Block Island   MOSUNNY   27  17  66 CALM      30.13R
Westerly       CLOUDY    20   9  62 CALM      30.13R
 IN MA

CITY           SKY/WX    TMP DP  RH WIND       PRES   REMARKS
Boston         CLOUDY    20   9  62 SW6       30.09S WCI  12
Worcester      CLOUDY    15   7  70 W7        30.00S WCI   5
Westfield      MOSUNNY   14  10  84 CALM      30.09R
Provincetown   SUNNY     25  15  66 W5        30.11R WCI  19
Nantucket      MOSUNNY   24  15  68 W3        30.11R
$$

ANZ330-335-338-340-345-350-353-355-151500-
COASTAL MARINE OBSERVATIONS


STATION/POSITION TIME  SKY/WX   TEMP    WIND        PRES    VSBY  WAVE
                                AIR SEA DIR/SP/G                  HT/PER
                 (UTC)          (F)     (DEG/KT/KT) (MB)    (MI)  (FT/S)
NY HARB ENTRANCE 1250            28 49  150/  2/  2 1019.4          1/10
20 S FIRE ISLAND 1250            29 51  160/  2/  4 1019.7          2/ 8
GREAT SOUTH BAY  1330            24 45   CALM  /  2   N/A
HUDSON CANYON    1350            36 56  240/  4/  8 1019.1          3/ 5
KINGS POINT      1336            23 42  170/  3/  5 1020.7
EXECUTION ROCKS  1345            26     230/  2/  6   N/A
WESTERN LI SOUND NOT AVBL
CENTRAL LI SOUND 1253            25     320/  4/  6   N/A           1
ROBBINS REEF     1348            23     250/  6/  8 1020.5
$$


>>>>>>>>>>>>>>>>>>>>>>>>>>>> KEY <<<<<<<<<<<<<<<<<<<<<<<<<<<
>                                                          <
>     SKY/WX - Sky Condition/Present Weather               <
>     TMP    - Temperature in Fahrenheit                   <
>     DP     - Dew Point in Fahrenheit                     <
>     RH     - Relative Humidity in Percent                <
>     WIND   - Direction (from) and Speed in MPH           <
>     PRES   - Mean Sea Level Pressure (inches of Hg)      <
>     WCI    - Wind Chill Index                            <
>     VSB    - VISIBILITY IN MILES                         <
>     HX     - HEAT INDEX                                  <
>     TC     - TEMPERATURE IN CELSIUS                      <
>     VRB    - VARIABLE WIND DIRECTION                     <
>                                                          <
>>>>>>>>>>>>>>>>>>>>>>>>>>>> KEY <<<<<<<<<<<<<<<<<<<<<<<<<<<




USA.gov is the U.S. government's official web portal to all federal, state and local government web resources and services.